Weather History for KFHU - October, 2011

Change the Weather History Date:

Tuesday, October 25, 2011

  Actual Average (KDUG) Record (KDUG)
Temperature  
Mean Temperature 70 °F 61 °F  
Max Temperature 80 °F 79 °F 89 °F (1979)
Min Temperature 60 °F 44 °F 32 °F (1961)
Degree Days  
Heating Degree Days 0 4  
Month to date heating degree days 49  
Since 1 July heating degree days 51  
Cooling Degree Days 5 1  
Month to date cooling degree days 59  
Year to date cooling degree days 1810  
Growing Degree Days 20 (Base 50)    
Moisture  
Dew Point 36 °F    
Average Humidity 30    
Maximum Humidity 45    
Minimum Humidity 20    
Precipitation  
Precipitation 0.00 in 0.03 in 0.65 in (1971)
Month to date precipitation 0.75  
Year to date precipitation 11.30  
Sea Level Pressure  
Sea Level Pressure 29.96 in    
Wind  
Wind Speed 11 mph (WSW)    
Max Wind Speed 22 mph    
Max Gust Speed 29 mph    
Visibility 10 miles    
Events      
T = Trace of Precipitation, MM = Missing Value Source: NWS Daily Summary

Daily Weather History Graph

Daily Weather History Graph

Search for Another Location

Airport or City:

Trip Planner

Search our weather history database for the weather conditions in past years. The results will help you decide how hot, cold, wet, or windy it might be!

Date:

Astronomy

Oct. 25, 2011 Rise Set
Actual Time 6:31 AM MST 5:38 PM MST
Civil Twilight 6:06 AM MST 6:03 PM MST
Nautical Twilight 5:38 AM MST 6:32 PM MST
Astronomical Twilight 5:10 AM MST 7:00 PM MST
Moon 5:10 AM MST (10/25) 4:42 PM MST (10/25)
Length of Visible Light 11h 56m
Length of Day
11h 07m
Waning Crescent, 2% of the Moon is Illuminated
Oct 25
Waning Crescent
Oct 26
New
Nov 2
First Quarter
Nov 10
Full
Nov 18
Last Quarter

Hourly Weather History & Observations

Time (MST) Temp. Dew Point Humidity Pressure Visibility Wind Dir Wind Speed Gust Speed Precip Events Conditions
12:56 AM 64.9 °F 39.0 °F 39% 29.99 in 10.0 mi SW 11.5 mph - N/A   Clear
1:56 AM 64.9 °F 37.0 °F 36% 29.98 in 10.0 mi SW 10.4 mph - N/A   Clear
2:56 AM 63.0 °F 37.9 °F 40% 29.98 in 10.0 mi SSW 9.2 mph - N/A   Clear
3:56 AM 63.0 °F 39.0 °F 41% 29.98 in 10.0 mi SW 8.1 mph - N/A   Clear
4:56 AM 62.1 °F 39.9 °F 44% 29.99 in 10.0 mi WSW 10.4 mph - N/A   Clear
5:55 AM 60.8 °F 39.2 °F 45% 30.00 in 10.0 mi SW 6.9 mph - N/A   Partly Cloudy
6:55 AM 62.6 °F 39.2 °F 42% 30.02 in 10.0 mi Variable 2.3 mph - N/A   Scattered Clouds
7:55 AM 69.8 °F 42.8 °F 38% 30.01 in 10.0 mi Variable 6.9 mph - N/A   Partly Cloudy
8:55 AM 73.4 °F 37.4 °F 27% 30.01 in 10.0 mi WSW 10.4 mph 17.3 mph N/A   Partly Cloudy
9:55 AM 75.2 °F 35.6 °F 24% 30.02 in 10.0 mi WSW 12.7 mph 24.2 mph N/A   Partly Cloudy
10:55 AM 77.0 °F 35.6 °F 22% 30.01 in 10.0 mi West 19.6 mph - N/A   Scattered Clouds
11:55 AM 78.8 °F 35.6 °F 21% 29.98 in 10.0 mi West 16.1 mph 21.9 mph N/A   Mostly Cloudy
12:55 PM 80.6 °F 35.6 °F 20% 29.94 in 10.0 mi West 18.4 mph 23.0 mph N/A   Mostly Cloudy
1:55 PM 80.6 °F 35.6 °F 20% 29.92 in 10.0 mi West 19.6 mph 28.8 mph N/A   Mostly Cloudy
2:55 PM 78.8 °F 33.8 °F 20% 29.91 in 10.0 mi West 15.0 mph 24.2 mph N/A   Mostly Cloudy
3:55 PM 78.8 °F 33.8 °F 20% 30.08 in 10.0 mi WSW 21.9 mph 27.6 mph N/A   Mostly Cloudy
4:55 PM 75.2 °F 33.8 °F 22% 29.90 in 10.0 mi West 8.1 mph - N/A   Mostly Cloudy
5:55 PM 73.4 °F 33.8 °F 23% 29.92 in 10.0 mi WSW 10.4 mph - N/A   Mostly Cloudy
6:55 PM 69.8 °F 33.8 °F 27% 29.92 in 10.0 mi SW 9.2 mph - N/A   Mostly Cloudy
7:55 PM 68.0 °F 30.2 °F 24% 29.92 in 10.0 mi SW 6.9 mph - N/A   Mostly Cloudy
8:55 PM 64.4 °F 30.2 °F 28% 29.92 in 10.0 mi SSW 8.1 mph - N/A   Scattered Clouds
9:55 PM 64.4 °F 32.0 °F 30% 29.91 in 10.0 mi SSW 5.8 mph - N/A   Scattered Clouds
10:55 PM 62.6 °F 32.0 °F 32% 29.89 in 10.0 mi SSW 8.1 mph - N/A   Mostly Cloudy
11:56 PM 68.0 °F 33.1 °F 27% 29.88 in 10.0 mi SSW 13.8 mph - N/A   Clear